{"data":{"norad_id":69108,"epoch":"2026-09-20T03:53:25.866816Z","epoch_age_seconds":52371,"freshness":"FRESH","line1":"1 69108U 26108E   26263.16210494  .00000116  00000+0  16176-3 0  9998","line2":"2 69108  89.0189  12.5833 0002308 108.6396 251.5006 13.51024192 17251","mean_motion":13.51024192,"eccentricity":0.0002308,"inclination_deg":89.0189,"raan_deg":12.5833,"arg_perigee_deg":108.6396,"mean_anomaly_deg":251.5006,"bstar":0.00016176,"rev_number":1725,"period_min":106.5858042015,"perigee_km":1066.7740068249,"apogee_km":1070.2113710893,"semimajor_km":7446.6296889571,"source":"CELESTRAK","updated_at":"2026-09-20T09:00:24.679111Z"}}